Location: La Pernelle
(49.6188°N, 1.2999°W)
Time: 10:35:29
(UTC+00:00)

Cosmos 1844 Rocket - Pass Details

Date: 12 June 2021
Orbit: 823 x 846 km, 71.0° (Epoch: 27 July)

Event Time Altitude Azimuth Distance (km) Brightness Sun altitude
Rises 21:41:38 0° 333° (NNW) 3,409 8.1 -10.5°
Reaches altitude 10° 21:44:09 10° 338° (NNW) 2,473 6.6 -10.7°
Maximum altitude 21:49:42 53° 55° (NE) 1,038 3.2 -11.2°
Enters shadow 21:54:33 14° 130° (SE) 2,216 4.3 -11.6°
